User: anonymous   Login
Location: Unspecified
(0.0000°N, 0.0000°E)
Time: 01:51:51
(UTC+00:00)
Language:

TBA - TO BE ASSIGNED - Orbit

View from above orbital plane
View from above orbital plane
View from above satellite
View from above satellite

Ground track
Ground track

The orbit is defined by the following mean orbital elements,

1 68871U          26145.58646898 +.00000000 +00000-0 +73718-3 0 00004
2 68871  51.8827 351.5680 0003229 197.4624 162.6253 15.38197940    02
Epoch (UTC): 25 May 2026 14:04:30
Eccentricity: 0.0003229
inclination: 51.8827°
perigee height: 449 km
apogee height: 454 km
right ascension of ascending node: 351.5680°
argument of perigee: 197.4624°
revolutions per day: 15.38197940
mean anomaly at epoch: 162.6253°

The dashed part of the orbit path shows where the satellite is in the earth's shadow,  

DLR